| time (UTC) | temp C | wind direction | speed KPH | gust KPH | rain 1hr cm | rain 24hr cm | rain mn cm | humidity % | barometer mb |
| 20260508092546 | 7 | 0.0 | 0.0 | 0.00 | 0.41 | 0.00 | 90 | 1015.4 | |
| 20260508091522 | 7 | 0.0 | 0.0 | 0.00 | 0.41 | 0.00 | 90 | 1015.8 | |
| 20260508090521 | 7 | 0.0 | 0.0 | 0.00 | 0.41 | 0.00 | 90 | 1015.6 | |
| 20260508085522 | 7 | 0.0 | 1.6 | 0.00 | 0.41 | 0.00 | 90 | 1015.5 | |
| 20260508084521 | 7 | 0.0 | 0.0 | 0.00 | 0.41 | 0.00 | 90 | 1015.5 | |
| 20260508083521 | 7 | 0.0 | 0.0 | 0.00 | 0.41 | 0.00 | 90 | 1015.4 | |
| 20260508082521 | 7 | 0.0 | 0.0 | 0.00 | 0.41 | 0.00 | 89 | 1015.2 | |
| 20260508081521 | 7 | 0.0 | 0.0 | 0.00 | 0.41 | 0.00 | 89 | 1015.5 | |
| 20260508080521 | 7 | 0.0 | 0.0 | 0.00 | 0.41 | 0.00 | 88 | 1015.3 | |
| 20260508075546 | 7 | 0.0 | 0.0 | 0.00 | 0.41 | 0.00 | 88 | 1015.2 | |
| 20260508074547 | 7 | 0.0 | 0.0 | 0.00 | 0.41 | 0.00 | 87 | 1015.3 | |
| 20260508073521 | 7 | 0.0 | 0.0 | 0.00 | 0.41 | 0.00 | 87 | 1015.4 | |
| 20260508072546 | 7 | 0.0 | 0.0 | 0.00 | 0.41 | 0.00 | 86 | 1015.2 | |
| 20260508071521 | 7 | 0.0 | 1.6 | 0.00 | 0.41 | 0.00 | 86 | 1015.1 | |
| 20260508070521 | 7 | 0.0 | 1.6 | 0.00 | 0.41 | 0.00 | 86 | 1015.1 | |
| 20260508065521 | 7 | 0.0 | 0.0 | 0.00 | 0.41 | 0.00 | 87 | 1014.9 | |
| 20260508064521 | 7 | 0.0 | 0.0 | 0.00 | 0.43 | 0.00 | 88 | 1014.9 | |
| 20260508063521 | 7 | 0.0 | 0.0 | 0.00 | 0.43 | 0.00 | 88 | 1014.8 | |
| 20260508062521 | 7 | 0.0 | 0.0 | 0.00 | 0.43 | 0.00 | 89 | 1014.9 | |
| 20260508061546 | 7 | 0.0 | 0.0 | 0.00 | 0.43 | 0.00 | 89 | 1015.1 | |
| 20260508060546 | 7 | 0.0 | 0.0 | 0.00 | 0.43 | 0.00 | 89 | 1015.3 | |
| 20260508055521 | 7 | 0.0 | 0.0 | 0.00 | 0.43 | 0.00 | 89 | 1015.2 | |
| 20260508054521 | 8 | 0.0 | 0.0 | 0.00 | 0.43 | 0.00 | 89 | 1015.3 | |
| 20260508053611 | 8 | 0.0 | 0.0 | 0.00 | 0.43 | 0.00 | 89 | 1015.3 | |
| 20260508052546 | 8 | 0.0 | 0.0 | 0.00 | 0.43 | 0.00 | 89 | 1015.2 | |
| 20260508051521 | 8 | 0.0 | 0.0 | 0.00 | 0.43 | 0.00 | 89 | 1015.1 | |
| 20260508050521 | 8 | 0.0 | 0.0 | 0.00 | 0.46 | 0.00 | 89 | 1015.1 | |
| 20260508045521 | 8 | 0.0 | 0.0 | 0.00 | 0.53 | 0.00 | 89 | 1015.2 | |
| 20260508044521 | 8 | 0.0 | 1.6 | 0.00 | 0.58 | 0.00 | 89 | 1015.0 | |
| 20260508043521 | 8 | 0.0 | 0.0 | 0.00 | 0.64 | 0.00 | 89 | 1015.0 | |
| 20260508042546 | 8 | 0.0 | 1.6 | 0.00 | 0.66 | 0.00 | 89 | 1014.9 | |
| 20260508041611 | 8 | 0.0 | 1.6 | 0.00 | 0.69 | 0.00 | 90 | 1015.0 | |
| 20260508040521 | 8 | 0.0 | 0.0 | 0.00 | 0.71 | 0.00 | 90 | 1014.8 | |
| 20260508035521 | 8 | 0.0 | 0.0 | 0.00 | 0.74 | 0.71 | 90 | 1014.8 | |
| 20260508034521 | 8 | 0.0 | 0.0 | 0.00 | 0.76 | 0.71 | 90 | 1014.9 | |
| 20260508033546 | 8 | 0.0 | 0.0 | 0.00 | 0.79 | 0.71 | 90 | 1015.1 | |
| 20260508032521 | 8 | 0.0 | 0.0 | 0.00 | 0.79 | 0.71 | 90 | 1015.4 | |
| 20260508031521 | 8 | 0.0 | 0.0 | 0.00 | 0.79 | 0.71 | 90 | 1015.4 | |
| 20260508030521 | 8 | 0.0 | 0.0 | 0.00 | 0.79 | 0.71 | 90 | 1015.3 | |
| 20260508025546 | 8 | 0.0 | 0.0 | 0.00 | 0.79 | 0.71 | 91 | 1015.2 | |
| 20260508024521 | 8 | 0.0 | 0.0 | 0.00 | 0.79 | 0.71 | 91 | 1015.1 | |
| 20260508023521 | 8 | 0.0 | 0.0 | 0.00 | 0.79 | 0.71 | 91 | 1015.1 | |
| 20260508022521 | 8 | 0.0 | 0.0 | 0.00 | 0.79 | 0.71 | 91 | 1014.8 | |
| 20260508021521 | 9 | 0.0 | 0.0 | 0.00 | 0.79 | 0.71 | 91 | 1014.5 | |
| 20260508020521 | 9 | 0.0 | 0.0 | 0.00 | 0.79 | 0.71 | 91 | 1014.9 | |
| 20260508015521 | 9 | 0.0 | 0.0 | 0.00 | 0.84 | 0.71 | 91 | 1014.6 | |
| 20260508014521 | 9 | 0.0 | 0.0 | 0.00 | 0.89 | 0.71 | 91 | 1014.4 | |
| 20260508013521 | 9 | 0.0 | 0.0 | 0.00 | 0.89 | 0.71 | 90 | 1014.1 | |
| 20260508012521 | 10 | 0.0 | 0.0 | 0.00 | 0.89 | 0.71 | 90 | 1014.1 | |
| 20260508011521 | 10 | 0.0 | 0.0 | 0.00 | 0.89 | 0.71 | 90 | 1013.9 | |
| 20260508010521 | 10 | 0.0 | 0.0 | 0.00 | 0.89 | 0.71 | 90 | 1013.8 | |
| 20260508005521 | 10 | 0.0 | 0.0 | 0.00 | 0.91 | 0.71 | 89 | 1013.8 | |
| 20260508004521 | 10 | 0.0 | 0.0 | 0.00 | 0.91 | 0.71 | 89 | 1013.8 | |
| 20260508003521 | 11 | 0.0 | 0.0 | 0.00 | 0.91 | 0.71 | 88 | 1013.8 | |
| 20260508002546 | 11 | 0.0 | 0.0 | 0.00 | 0.97 | 0.71 | 88 | 1013.8 | |
| 20260508001521 | 11 | 0.0 | 0.0 | 0.00 | 1.04 | 0.71 | 87 | 1013.7 | |
| 20260508000521 | 11 | 0.0 | 0.0 | 0.00 | 1.07 | 0.71 | 86 | 1013.5 | |
| 20260507235521 | 12 | 0.0 | 0.0 | 0.00 | 1.07 | 0.71 | 86 | 1013.5 | |
| 20260507234521 | 12 | 0.0 | 1.6 | 0.00 | 1.07 | 0.71 | 85 | 1013.4 | |
| 20260507233521 | 12 | 23 | 1.6 | 4.8 | 0.00 | 1.09 | 0.71 | 83 | 1013.4 |
| 20260507232521 | 12 | 0.0 | 4.8 | 0.00 | 1.19 | 0.71 | 84 | 1013.3 | |
| 20260507231521 | 12 | 0.0 | 3.2 | 0.00 | 1.24 | 0.71 | 85 | 1013.1 | |
| 20260507230521 | 12 | 0.0 | 3.2 | 0.00 | 1.30 | 0.71 | 85 | 1013.3 | |
| 20260507225521 | 12 | 23 | 1.6 | 4.8 | 0.00 | 1.30 | 0.71 | 85 | 1013.2 |
| 20260507224520 | 12 | 0.0 | 0.0 | 0.00 | 1.30 | 0.71 | 86 | 1013.2 | |
| 20260507223521 | 12 | 0.0 | 0.0 | 0.00 | 1.30 | 0.71 | 86 | 1013.1 | |
| 20260507222546 | 12 | 0.0 | 3.2 | 0.00 | 1.30 | 0.71 | 86 | 1013.1 | |
| 20260507221520 | 12 | 0.0 | 3.2 | 0.00 | 1.30 | 0.71 | 85 | 1012.8 | |
| 20260507220546 | 12 | 23 | 3.2 | 9.7 | 0.00 | 1.30 | 0.71 | 84 | 1012.7 |
| 20260507215521 | 12 | 23 | 1.6 | 8.0 | 0.00 | 1.32 | 0.71 | 84 | 1012.5 |
| 20260507214521 | 12 | 0.0 | 3.2 | 0.00 | 1.37 | 0.71 | 84 | 1012.4 | |
| 20260507213521 | 12 | 23 | 3.2 | 9.7 | 0.00 | 1.40 | 0.71 | 83 | 1012.1 |
| 20260507212520 | 12 | 23 | 3.2 | 8.0 | 0.00 | 1.40 | 0.71 | 83 | 1011.8 |
| 20260507211520 | 13 | 23 | 1.6 | 9.7 | 0.00 | 1.42 | 0.71 | 83 | 1011.9 |
| 20260507210520 | 13 | 23 | 3.2 | 14.5 | 0.00 | 1.42 | 0.71 | 81 | 1011.7 |
| 20260507205520 | 14 | 23 | 1.6 | 9.7 | 0.00 | 1.42 | 0.71 | 81 | 1011.6 |
| 20260507204520 | 15 | 23 | 4.8 | 14.5 | 0.00 | 1.42 | 0.71 | 79 | 1011.4 |
| 20260507203520 | 16 | 0 | 4.8 | 9.7 | 0.00 | 1.42 | 0.71 | 78 | 1011.6 |
| 20260507202521 | 15 | 0 | 1.6 | 4.8 | 0.00 | 1.42 | 0.71 | 82 | 1011.5 |
| 20260507201520 | 15 | 0.0 | 0.0 | 0.00 | 1.42 | 0.71 | 84 | 1011.3 | |
| 20260507200520 | 15 | 0 | 1.6 | 4.8 | 0.00 | 1.42 | 0.71 | 82 | 1011.4 |
| 20260507195520 | 15 | 23 | 1.6 | 6.4 | 0.00 | 1.42 | 0.71 | 82 | 1011.4 |
| 20260507194520 | 15 | 23 | 1.6 | 6.4 | 0.00 | 1.42 | 0.71 | 82 | 1011.2 |
| 20260507193521 | 16 | 0 | 1.6 | 4.8 | 0.00 | 1.42 | 0.71 | 81 | 1011.1 |
| 20260507192520 | 16 | 0.0 | 0.0 | 0.00 | 1.42 | 0.71 | 81 | 1011.4 | |
| 20260507191520 | 16 | 0 | 1.6 | 8.0 | 0.00 | 1.42 | 0.71 | 81 | 1011.2 |
| 20260507190520 | 16 | 0.0 | 4.8 | 0.00 | 1.42 | 0.71 | 84 | 1011.2 | |
| 20260507185520 | 16 | 0.0 | 1.6 | 0.00 | 1.42 | 0.71 | 85 | 1011.1 | |
| 20260507184520 | 15 | 0.0 | 3.2 | 0.00 | 1.42 | 0.71 | 85 | 1011.5 | |
| 20260507183610 | 16 | 0.0 | 3.2 | 0.00 | 1.42 | 0.71 | 87 | 1011.5 | |
| 20260507182522 | 16 | 0.0 | 3.2 | 0.00 | 1.42 | 0.71 | 86 | 1011.6 | |
| 20260507181522 | 16 | 0.0 | 0.0 | 0.00 | 1.42 | 0.71 | 85 | 1011.9 | |
| 20260507180522 | 16 | 0.0 | 3.2 | 0.00 | 1.42 | 0.71 | 83 | 1011.6 | |
| 20260507175522 | 16 | 0.0 | 3.2 | 0.00 | 1.42 | 0.71 | 83 | 1011.7 | |
| 20260507174522 | 17 | 0 | 1.6 | 3.2 | 0.00 | 1.42 | 0.71 | 83 | 1011.5 |
| 20260507173522 | 16 | 0.0 | 1.6 | 0.00 | 1.42 | 0.71 | 84 | 1011.3 | |
| 20260507172522 | 16 | 0.0 | 3.2 | 0.00 | 1.42 | 0.71 | 85 | 1011.4 | |
| 20260507171522 | 16 | 23 | 1.6 | 6.4 | 0.00 | 1.42 | 0.71 | 85 | 1011.5 |
| 20260507170522 | 16 | 0.0 | 4.8 | 0.00 | 1.42 | 0.71 | 86 | 1011.3 | |
| 20260507165547 | 16 | 0.0 | 1.6 | 0.00 | 1.42 | 0.71 | 88 | 1011.2 | |
| 20260507164522 | 16 | 23 | 1.6 | 6.4 | 0.00 | 1.42 | 0.71 | 88 | 1011.2 |
| 20260507163522 | 16 | 0.0 | 3.2 | 0.00 | 1.42 | 0.71 | 89 | 1011.1 | |
| 20260507162522 | 16 | 0 | 1.6 | 8.0 | 0.00 | 1.42 | 0.71 | 89 | 1011.3 |
| 20260507161522 | 16 | 0 | 1.6 | 9.7 | 0.00 | 1.45 | 0.71 | 90 | 1011.4 |
| 20260507160547 | 16 | 0.0 | 4.8 | 0.00 | 1.47 | 0.71 | 90 | 1011.6 | |
| 20260507155522 | 16 | 23 | 1.6 | 6.4 | 0.00 | 1.52 | 0.71 | 90 | 1011.5 |
| 20260507154522 | 16 | 0.0 | 1.6 | 0.00 | 1.55 | 0.71 | 87 | 1011.4 | |
| 20260507153522 | 16 | 0.0 | 4.8 | 0.00 | 1.63 | 0.71 | 89 | 1011.3 | |
| 20260507152522 | 16 | 0 | 3.2 | 4.8 | 0.00 | 1.75 | 0.71 | 82 | 1011.4 |
| 20260507151547 | 16 | 0.0 | 1.6 | 0.00 | 2.11 | 0.71 | 75 | 1011.2 | |
| 20260507150522 | 16 | 0.0 | 0.0 | 0.00 | 2.16 | 0.71 | 73 | 1011.0 | |
| 20260507145522 | 16 | 0.0 | 0.0 | 0.00 | 2.18 | 0.71 | 74 | 1011.0 | |
| 20260507144522 | 16 | 0.0 | 0.0 | 0.00 | 2.21 | 0.71 | 75 | 1011.0 | |
| 20260507143522 | 16 | 0.0 | 0.0 | 0.00 | 2.21 | 0.71 | 75 | 1011.0 | |
| 20260507142522 | 16 | 0.0 | 0.0 | 0.00 | 2.21 | 0.71 | 74 | 1011.1 | |
| 20260507141522 | 16 | 0.0 | 1.6 | 0.00 | 2.21 | 0.71 | 71 | 1011.5 | |
| 20260507140613 | 16 | 0.0 | 1.6 | 0.00 | 2.21 | 0.71 | 70 | 1011.2 | |
| 20260507135522 | 16 | 0.0 | 0.0 | 0.00 | 2.21 | 0.71 | 70 | 1011.2 | |
| 20260507134522 | 16 | 0.0 | 0.0 | 0.00 | 2.21 | 0.71 | 70 | 1011.1 | |
| 20260507133521 | 16 | 0.0 | 0.0 | 0.00 | 2.21 | 0.71 | 71 | 1011.4 | |
| 20260507132522 | 16 | 0.0 | 0.0 | 0.00 | 2.21 | 0.71 | 70 | 1011.6 | |
| 20260507131547 | 16 | 0.0 | 0.0 | 0.00 | 2.21 | 0.71 | 70 | 1011.4 | |
| 20260507130547 | 15 | 0.0 | 0.0 | 0.00 | 2.21 | 0.71 | 70 | 1011.1 | |
| 20260507125522 | 15 | 0.0 | 0.0 | 0.00 | 2.21 | 0.71 | 71 | 1011.1 | |
| 20260507124522 | 15 | 0.0 | 1.6 | 0.00 | 2.21 | 0.71 | 71 | 1011.1 | |
| 20260507123547 | 15 | 0.0 | 0.0 | 0.00 | 2.21 | 0.71 | 71 | 1011.1 | |
| 20260507122522 | 15 | 0.0 | 0.0 | 0.03 | 2.21 | 0.71 | 71 | 1010.8 | |
| 20260507121522 | 15 | 0.0 | 0.0 | 0.08 | 2.21 | 0.71 | 71 | 1010.5 | |
| 20260507120521 | 15 | 0.0 | 0.0 | 0.15 | 2.21 | 0.71 | 72 | 1010.8 | |
| 20260507115522 | 15 | 0.0 | 0.0 | 0.23 | 2.21 | 0.71 | 72 | 1011.1 | |
| 20260507114521 | 15 | 0.0 | 0.0 | 0.30 | 2.21 | 0.71 | 73 | 1011.2 | |
| 20260507113521 | 15 | 0.0 | 0.0 | 0.36 | 2.21 | 0.71 | 73 | 1011.5 | |
| 20260507112522 | 15 | 0.0 | 0.0 | 0.38 | 2.18 | 0.69 | 73 | 1011.9 | |
| 20260507111521 | 15 | 0.0 | 0.0 | 0.33 | 2.13 | 0.64 | 73 | 1012.1 | |
| 20260507110521 | 15 | 0.0 | 1.6 | 0.25 | 2.06 | 0.56 | 73 | 1012.2 | |
| 20260507105521 | 15 | 0.0 | 0.0 | 0.18 | 1.98 | 0.48 | 73 | 1012.3 | |
| 20260507104522 | 15 | 0.0 | 0.0 | 0.10 | 1.91 | 0.41 | 73 | 1012.1 | |
| 20260507103521 | 15 | 0.0 | 0.0 | 0.05 | 1.85 | 0.36 | 73 | 1011.2 | |
| 20260507102521 | 15 | 0.0 | 0.0 | 0.00 | 1.80 | 0.30 | 74 | 1011.2 | |
| 20260507101521 | 15 | 0.0 | 0.0 | 0.00 | 1.80 | 0.30 | 73 | 1011.1 | |
| 20260507100521 | 15 | 0.0 | 0.0 | 0.00 | 1.80 | 0.30 | 73 | 1011.7 | |
| 20260507095521 | 15 | 0.0 | 0.0 | 0.00 | 1.80 | 0.30 | 73 | 1011.6 | |
| 20260507094521 | 15 | 0.0 | 0.0 | 0.00 | 1.80 | 0.30 | 73 | 1011.2 | |
| 20260507093521 | 15 | 0.0 | 0.0 | 0.00 | 1.80 | 0.30 | 73 | 1011.0 |